"Time","Temp","Dewpoint","Humidity","Pressure","Direction","Speed","Gust","Precip","PrecipRate"
"00:04:58","62","46.6","57","30.50","139","0","0","0.00","0.00"
"00:09:59","61.5","46.7","58.4","30.50","139","0","0","0.00","0.00"
"00:14:58","61.1","46.8","59.4","30.50","139","0","1.2","0.00","0.00"
"00:19:58","60.8","46.1","58.4","30.50","139","0.6","2.3","0.00","0.00"
"00:24:57","60.8","46.5","59.4","30.50","140","0.5","2.3","0.00","0.00"
"00:29:56","60.7","46.7","60","30.50","140","0.2","2.3","0.00","0.00"
"00:34:57","60.5","47.1","61.3","30.50","140","0.4","2.3","0.00","0.00"
"00:39:58","60.2","46.7","61.1","30.50","140","0.8","4","0.00","0.00"
"00:44:57","60.2","46","59.3","30.50","141","0.5","3.5","0.00","0.00"
"00:49:56","60.4","46","59","30.50","153","0.5","4","0.00","0.00"
"00:54:59","60.7","46.5","59.6","30.50","159","0.1","1.2","0.00","0.00"
"00:59:57","60.5","46.8","60.6","30.50","144","0.8","3.5","0.00","0.00"
"01:04:59","60.6","46.3","59.2","30.49","138","0.3","3.5","0.00","0.00"
"01:09:56","60.7","46.4","59.2","30.49","138","0","1.2","0.00","0.00"
"01:14:58","60.7","47.6","62.2","30.49","138","0","0","0.00","0.00"
"01:19:58","60.3","48.5","65.2","30.49","138","0","1","0.00","0.00"
"01:24:56","59.7","48.7","67.1","30.49","138","0.2","1.2","0.00","0.00"
"01:29:59","59.1","48.4","67.6","30.50","138","0","1.2","0.00","0.00"
"01:34:59","58.8","48.2","67.7","30.50","138","0","0","0.00","0.00"
"01:39:58","58.5","48.4","69","30.50","138","0.1","1.2","0.00","0.00"
"01:44:58","58.1","48","69","30.50","138","0","0","0.00","0.00"
"01:49:56","57.7","47.9","69.8","30.49","138","0","0","0.00","0.00"
"01:54:56","57.4","48.1","71.2","30.49","138","0","0","0.00","0.00"
"01:59:58","57.2","48.2","71.9","30.49","138","0","0","0.00","0.00"
"02:04:56","57","48.4","73","30.49","138","0.7","2.3","0.00","0.00"
"02:09:57","56.8","48.7","74.2","30.49","138","1.1","2.3","0.00","0.00"
"02:14:59","56.5","48.8","75.1","30.50","138","1","2.3","0.00","0.00"
"02:19:59","56.2","48.9","76.4","30.50","138","0.4","1.2","0.00","0.00"
"02:24:57","56","48.5","76.2","30.50","138","0","0","0.00","0.00"
"02:29:58","55.8","48.5","76.6","30.50","138","0","0","0.00","0.00"
"02:34:58","55.6","48.4","76.9","30.50","138","0","0","0.00","0.00"
"02:39:56","55.4","48.7","78","30.50","138","0.6","2.3","0.00","0.00"
"02:44:59","55.3","48.7","78.1","30.50","138","0.6","2.3","0.00","0.00"
"02:49:57","55.3","48.7","78.2","30.49","138","0.5","2.3","0.00","0.00"
"02:54:57","55.3","48.8","78.9","30.49","138","0.6","2.3","0.00","0.00"
"02:59:57","55.1","48.9","79.7","30.49","101","1.3","3.5","0.00","0.00"
"03:04:58","55","49.2","80.7","30.49","64","1.4","3.5","0.00","0.00"
"03:09:59","55","49.1","80.7","30.49","64","0.3","2.3","0.00","0.00"
"03:14:57","54.8","48.7","80","30.49","64","0.6","2.3","0.00","0.00"
"03:19:59","54.7","48.6","80","30.49","64","1.1","2.3","0.00","0.00"
"03:24:57","54.6","48.6","80","30.49","64","0.3","2.3","0.00","0.00"
"03:29:56","54.5","48.8","80.9","30.49","64","0","0","0.00","0.00"
"03:34:57","54.4","48.7","81","30.49","64","0","0","0.00","0.00"
"03:39:59","54.2","48.7","82","30.49","64","0","0","0.00","0.00"
"03:44:58","53.9","48.8","82.6","30.49","64","0","0","0.00","0.00"
"03:49:56","53.7","48.8","83.2","30.49","64","0","0","0.00","0.00"
"03:54:57","53.6","48.9","84","30.49","64","0","0","0.00","0.00"
"03:59:56","53.5","49","84.7","30.49","64","0","0","0.00","0.00"
"04:04:58","53.3","48.9","85","30.49","64","0","0","0.00","0.00"
"04:09:59","53.1","48.8","85.3","30.49","64","0","0","0.00","0.00"
"04:14:57","53","48.9","86","30.49","64","0","0","0.00","0.00"
"04:19:59","52.9","48.8","86","30.49","64","0","0","0.00","0.00"
"04:24:59","52.7","48.7","86.6","30.49","64","0","0","0.00","0.00"
"04:29:58","52.5","48.7","87","30.49","64","0","0","0.00","0.00"
"04:34:58","52.3","48.7","87.6","30.49","64","0","0","0.00","0.00"
"04:39:59","52.3","49","88.4","30.49","64","0","0","0.00","0.00"
"04:44:59","52.2","49.1","89","30.49","64","0","0","0.00","0.00"
"04:49:57","52.1","49","89","30.49","64","0","0","0.00","0.00"
"04:54:57","52.1","49","89","30.49","64","0","0","0.00","0.00"
"04:59:59","52.1","49","89","30.49","64","0","0","0.00","0.00"
"05:04:59","52","48.9","89","30.49","64","0","0","0.00","0.00"
"05:09:56","51.8","48.7","89","30.49","64","0","0","0.00","0.00"
"05:14:57","51.7","48.7","89.2","30.50","64","0.1","1.2","0.00","0.00"
"05:19:59","51.7","48.9","90","30.50","64","0","1.2","0.00","0.00"
"05:24:58","51.6","48.8","90","30.50","64","0","0","0.00","0.00"
"05:29:56","51.4","48.4","89.3","30.50","64","0","0","0.00","0.00"
"05:34:58","51.3","48.2","89.2","30.50","64","0","0","0.00","0.00"
"05:39:59","51.1","48","89","30.50","64","0","0","0.00","0.00"
"05:44:57","50.9","48","89.6","30.50","350","0","1","0.00","0.00"
"05:49:56","50.8","48.1","90.1","30.50","348","0.2","1.2","0.00","0.00"
"05:54:59","50.8","48.3","90.8","30.50","349","0","1.2","0.00","0.00"
"05:59:58","50.8","48","90.1","30.51","349","0","0","0.00","0.00"
"06:04:56","50.6","48.1","91","30.51","349","0","0","0.00","0.00"
"06:09:58","50.5","48","91","30.51","349","0","0","0.00","0.00"
"06:14:58","50.4","47.9","91","30.51","349","0","0","0.00","0.00"
"06:19:56","50.4","48","91.5","30.51","349","0","0","0.00","0.00"
"06:24:56","50.4","48.2","92","30.51","349","0","0","0.00","0.00"
"06:29:58","50.4","48.2","92","30.51","349","0","0","0.00","0.00"
"06:34:57","50.5","48.6","93","30.51","349","0","0","0.00","0.00"
"06:39:56","50.7","48.7","93","30.51","349","0","0","0.00","0.00"
"06:44:58","50.8","48.8","93","30.52","349","0","0","0.00","0.00"
"06:49:56","51","48.9","92.8","30.52","349","0","0","0.00","0.00"
"06:54:58","51.2","49.2","93","30.52","349","0","1.2","0.00","0.00"
"06:59:56","51.6","49.6","92.8","30.53","349","0","0","0.00","0.00"
"07:04:58","52.1","49.8","92","30.53","349","0","0","0.00","0.00"
"07:09:59","52.6","50.2","91.4","30.53","349","0","0","0.00","0.00"
"07:14:59","53.3","50.4","90","30.53","349","0","0","0.00","0.00"
"07:19:56","53.9","51","90","30.53","349","0","0","0.00","0.00"
"07:24:59","54.5","51.4","89.3","30.53","342","0","0","0.00","0.00"
"07:29:57","55.2","51.8","88.1","30.53","342","0","0","0.00","0.00"
"07:34:56","55.8","51.6","85.7","30.53","342","0","0","0.00","0.00"
"07:39:56","56.5","51.7","84.2","30.53","342","0.1","1.2","0.00","0.00"
"07:44:58","57.1","51.8","82.3","30.53","342","0","0","0.00","0.00"
"07:49:59","57.8","51.9","80.5","30.53","314","0","0","0.00","0.00"
"07:54:58","58.5","52.1","79.3","30.53","313","0","0","0.00","0.00"
"07:59:58","59.3","52.2","77.5","30.53","313","0","0","0.00","0.00"
"08:04:59","60.2","52.7","76.2","30.53","312","0","0","0.00","0.00"
"08:09:59","60.9","52.8","74.7","30.53","85","0.9","2.3","0.00","0.00"
"08:14:59","61.5","53.2","74.1","30.54","90","1","3.5","0.00","0.00"
"08:19:56","62.1","53.1","72.3","30.54","96","0.9","3.5","0.00","0.00"
"08:24:57","62.8","53.3","71.1","30.54","96","0.9","2.3","0.00","0.00"
"08:29:59","63.5","53.2","69","30.54","119","1.3","3.5","0.00","0.00"
"08:34:57","64","53.3","68.2","30.54","129","1","3.5","0.00","0.00"
"08:39:57","64.5","54.3","69.4","30.54","131","0.8","3.5","0.00","0.00"
"08:44:58","65.1","53","64.8","30.54","137","1.6","3.5","0.00","0.00"
"08:49:55","65.7","52.7","62.9","30.54","165","1.5","4","0.00","0.00"
"08:54:56","66.1","53.1","62.7","30.54","217","2","4","0.00","0.00"
"08:59:58","66.4","52.9","61.8","30.54","178","2","4","0.00","0.00"
"09:04:59","66.8","53.1","61.4","30.54","165","1.2","3.5","0.00","0.00"
"09:09:56","67.1","52.4","59.4","30.54","160","1.4","3.5","0.00","0.00"
"09:14:56","67.3","53.1","60.4","30.54","158","1.6","3.5","0.00","0.00"
"09:19:57","67.6","51.9","57.2","30.54","145","1.1","3.5","0.00","0.00"
"09:24:58","68","51.2","55","30.54","185","3.1","6","0.00","0.00"
"09:29:58","68.3","51.7","55.4","30.54","163","2.4","5","0.00","0.00"
"09:34:58","68.7","52.4","56.1","30.54","211","2.2","5","0.00","0.00"
"09:39:57","69.1","52","54.6","30.54","163","2","5","0.00","0.00"
"09:44:58","69.6","52.3","54.1","30.54","171","2.4","4.6","0.00","0.00"
"09:49:59","69.9","52.2","53.3","30.54","195","2.9","5","0.00","0.00"
"09:54:57","70.1","52.7","54.1","30.54","188","2.2","6","0.00","0.00"
"09:59:58","70.3","52","52.3","30.54","169","2.7","6","0.00","0.00"
"10:04:58","70.6","51.7","51.3","30.54","177","2.6","6","0.00","0.00"
"10:09:58","70.8","51.9","51.3","30.54","204","2.6","5","0.00","0.00"
"10:14:57","71.2","51.9","50.6","30.54","213","2.9","7","0.00","0.00"
"10:19:58","71.5","52.5","51","30.54","205","2.8","6","0.00","0.00"
"10:24:59","71.7","53","51.7","30.54","213","1.4","4","0.00","0.00"
"10:29:58","72","51.7","49","30.54","197","2.8","7","0.00","0.00"
"10:34:58","72.4","50.4","46","30.54","203","2.7","5","0.00","0.00"
"10:39:57","72.6","51.1","46.8","30.54","181","2.1","5","0.00","0.00"
"10:44:59","73","49.7","43.8","30.54","185","2.2","5","0.00","0.00"
"10:49:56","73.3","50","44","30.54","196","3.8","6","0.00","0.00"
"10:54:57","73.4","49.5","42.9","30.54","192","3","7","0.00","0.00"
"10:59:58","73.6","49.6","42.8","30.54","163","2.7","6","0.00","0.00"
"11:04:59","73.8","50.6","44.1","30.54","172","2.7","5","0.00","0.00"
"11:09:59","74","50.4","43.6","30.54","176","2.2","6","0.00","0.00"
"11:14:58","74.4","50.9","43.7","30.54","207","2.9","6","0.00","0.00"
"11:19:56","74.7","50.2","42.3","30.54","192","3","7","0.00","0.00"
"11:24:57","74.8","51.7","44.6","30.54","212","1.2","4","0.00","0.00"
"11:29:58","75.3","52.8","45.6","30.54","136","1","4","0.00","0.00"
"11:34:58","75.7","52.5","44.5","30.53","193","2.8","9","0.00","0.00"
"11:39:59","75.9","51.9","43.1","30.53","161","2.1","5.8","0.00","0.00"
"11:44:57","76.2","53.2","44.9","30.53","134","0.9","4","0.00","0.00"
"11:49:57","76.5","52.9","43.9","30.53","191","2.8","7","0.00","0.00"
"11:54:59","76.8","53.1","43.9","30.53","190","2.7","6","0.00","0.00"
"11:59:56","76.7","51.5","41.3","30.53","123","1.8","4","0.00","0.00"
"12:04:56","76.6","53.4","44.5","30.53","149","1.3","4","0.00","0.00"
"12:09:56","77","53.8","44.7","30.53","202","3.2","7","0.00","0.00"
"12:14:56","77.1","53.4","43.9","30.53","182","2.8","6","0.00","0.00"
"12:19:57","77.3","53.2","43.3","30.53","171","1.8","5","0.00","0.00"
"12:24:58","77.5","52.3","41.7","30.53","141","1.1","6","0.00","0.00"
"12:29:59","77.9","55.6","46.3","30.53","222","2.3","5.8","0.00","0.00"
"12:34:56","78.3","53","41.5","30.52","217","2.2","4","0.00","0.00"
"12:39:56","78.4","54.7","44.1","30.52","188","1.9","6","0.00","0.00"
"12:44:57","78.6","53.8","42.4","30.52","183","3.5","7","0.00","0.00"
"12:49:58","78.4","52.8","41.1","30.52","248","3.7","7","0.00","0.00"
"12:54:59","78.2","53.9","43","30.52","278","2.6","6","0.00","0.00"
"12:59:56","78.5","54.2","43.2","30.52","166","1.6","4.6","0.00","0.00"
"13:04:57","78.7","54.4","43.2","30.51","174","1.8","7","0.00","0.00"
"13:09:57","79","54.7","43.4","30.51","207","2.5","6.9","0.00","0.00"
"13:14:56","79.3","53.5","41","30.51","210","3.4","7","0.00","0.00"
"13:19:56","79.5","54.5","42.3","30.51","186","3.5","9","0.00","0.00"
"13:24:56","79.6","54.7","42.4","30.51","220","2.5","5","0.00","0.00"
"13:29:57","79.7","53.9","41","30.51","219","1.5","5","0.00","0.00"
"13:34:56","80","54.3","41.3","30.51","182","2.9","7","0.00","0.00"
"13:39:58","80.1","55.1","42.3","30.51","137","2.7","5.8","0.00","0.00"
"13:44:57","80.2","55.9","43.5","30.51","150","1.2","6","0.00","0.00"
"13:49:56","80.3","54.3","40.8","30.50","190","3.3","7","0.00","0.00"
"13:54:59","80.3","54.9","41.8","30.50","201","3","6.9","0.00","0.00"
"13:59:59","80.5","56","43.2","30.50","190","2.5","6","0.00","0.00"
"14:04:59","80.7","54.7","40.9","30.50","128","1.6","5.8","0.00","0.00"
"14:09:59","80.7","55.6","42.2","30.50","122","2.1","5","0.00","0.00"
"14:14:57","80.8","55","41.2","30.50","104","2.7","9.2","0.00","0.00"
"14:19:57","81","55.8","42.1","30.49","181","3.3","9.2","0.00","0.00"
"14:24:57","81.1","57.1","43.9","30.49","212","2.8","6","0.00","0.00"
"14:29:56","81.4","56.3","42.4","30.49","161","2.1","5.8","0.00","0.00"
"14:34:59","81.6","56.4","42.2","30.49","185","3.5","11","0.00","0.00"
"14:39:57","81.8","56.6","42.3","30.49","213","3.4","6.9","0.00","0.00"
"14:44:57","81.9","56.8","42.4","30.49","202","3.3","7","0.00","0.00"
"14:49:56","82.1","55.4","40.1","30.48","180","2.4","7","0.00","0.00"
"14:54:57","82.2","57.9","43.6","30.48","140","1.3","5","0.00","0.00"
"14:59:56","82.5","56.7","41.4","30.48","176","2.9","8","0.00","0.00"
"15:04:59","82.8","56.7","41.1","30.47","198","3.7","7","0.00","0.00"
"15:09:55","82.9","56.4","40.4","30.47","187","2.1","6.9","0.00","0.00"
"15:14:57","82.9","55","38.6","30.47","132","1.7","4","0.00","0.00"
"15:19:57","82.8","56.3","40.5","30.47","200","3.1","9","0.00","0.00"
"15:24:57","83","56.8","40.9","30.47","197","2.1","6","0.00","0.00"
"15:29:57","83.1","55.7","39.2","30.47","202","2.4","5.8","0.00","0.00"
"15:34:57","83.2","57.6","41.9","30.46","228","1.9","4","0.00","0.00"
"15:39:59","83.4","56.8","40.4","30.46","223","2","5","0.00","0.00"
"15:44:56","83.6","56.1","39.2","30.46","289","1.4","5","0.00","0.00"
"15:49:56","83.7","56.2","39.1","30.45","152","2.5","6","0.00","0.00"
"15:54:58","83.6","57.5","41.2","30.45","164","2.5","6","0.00","0.00"
"15:59:57","83.4","56.9","40.5","30.45","128","1.8","4","0.00","0.00"
"16:04:57","83.4","56.8","40.4","30.45","200","2.3","5","0.00","0.00"
"16:09:57","83.8","56.2","39.1","30.45","212","3.1","7","0.00","0.00"
"16:14:58","83.9","55.8","38.4","30.45","189","3.2","7","0.00","0.00"
"16:19:59","83.8","56.4","39.3","30.45","212","2.8","5.8","0.00","0.00"
"16:24:58","84","56.3","38.8","30.45","205","3","6","0.00","0.00"
"16:29:58","84.3","56.5","38.8","30.45","192","3.3","7","0.00","0.00"
"16:34:59","84.3","56.4","38.7","30.44","184","2.7","10.4","0.00","0.00"
"16:39:57","84.4","57.5","40.3","30.44","193","3.2","10.4","0.00","0.00"
"16:44:57","84.5","57.1","39.5","30.44","187","2","5","0.00","0.00"
"16:49:57","84.8","55.6","37","30.44","205","1.6","5","0.00","0.00"
"16:54:57","85","57.4","39.1","30.44","208","2.7","6","0.00","0.00"
"16:59:57","84.9","56.7","38.3","30.44","181","3","5","0.00","0.00"
"17:04:56","84.7","56.2","37.9","30.43","217","3","7","0.00","0.00"
"17:09:56","84.5","56.6","38.8","30.43","177","2.9","7","0.00","0.00"
"17:14:58","84.5","57.1","39.4","30.43","173","2.3","4","0.00","0.00"
"17:19:58","84.5","57.4","39.8","30.43","147","1.5","4","0.00","0.00"
"17:24:57","84.5","56.8","38.9","30.43","191","1.8","4","0.00","0.00"
"17:29:56","84.5","57","39.2","30.43","198","2.7","5","0.00","0.00"
"17:34:59","84.6","56.5","38.4","30.43","190","1.4","3.5","0.00","0.00"
"17:39:57","84.8","56.7","38.4","30.43","185","3.1","6","0.00","0.00"
"17:44:56","84.8","56.4","38.1","30.43","184","1.6","5.8","0.00","0.00"
"17:49:59","84.8","57.1","38.9","30.43","169","1.7","5","0.00","0.00"
"17:54:58","84.7","56.3","38","30.43","198","2.3","4.6","0.00","0.00"
"17:59:58","84.5","56.5","38.6","30.43","177","1.5","4","0.00","0.00"
"18:04:58","84.5","57.4","39.8","30.43","181","3","6","0.00","0.00"
"18:09:59","84.6","56.6","38.6","30.43","185","2.2","5","0.00","0.00"
"18:14:57","84.6","56.6","38.6","30.43","144","1.4","3.5","0.00","0.00"
"18:19:57","84.3","56.8","39.2","30.42","188","2.4","6","0.00","0.00"
"18:24:55","83.9","57.1","40.1","30.42","168","2.4","5","0.00","0.00"
"18:29:59","83.3","56","39.4","30.42","144","2.2","5","0.00","0.00"
"18:34:58","82.8","55.7","39.5","30.42","128","2.2","4","0.00","0.00"
"18:39:59","82.3","56","40.5","30.42","143","1.9","5","0.00","0.00"
"18:44:59","81.9","56.7","42.2","30.42","131","2.1","5","0.00","0.00"
"18:49:58","81.4","55.8","41.5","30.42","133","2.8","7","0.00","0.00"
"18:54:57","81","55.9","42.2","30.42","134","2.2","5","0.00","0.00"
"18:59:57","80.6","56.2","43.2","30.42","170","2.4","5","0.00","0.00"
"19:04:56","80.3","55.6","42.7","30.42","153","2.5","5","0.00","0.00"
"19:09:57","80.1","55.6","43.1","30.42","178","3","9.2","0.00","0.00"
"19:14:56","79.7","55.1","42.8","30.42","149","3.1","7","0.00","0.00"
"19:19:58","79.6","55.2","43.1","30.42","142","2.7","5.8","0.00","0.00"
"19:24:57","79.4","55.2","43.4","30.42","144","2.8","6","0.00","0.00"
"19:29:57","79.2","55.1","43.5","30.42","133","2.3","4.6","0.00","0.00"
"19:34:56","78.9","55.1","43.9","30.42","157","2.1","5","0.00","0.00"
"19:39:58","78.9","55.5","44.6","30.42","141","1.3","3.5","0.00","0.00"
"19:44:59","78.6","55.4","44.8","30.42","147","1.5","4","0.00","0.00"
"19:49:56","78.4","55.4","45.2","30.42","150","1.5","3.5","0.00","0.00"
"19:54:58","78.2","55.1","45","30.42","152","1.6","3.5","0.00","0.00"
"19:59:59","78","55.4","45.8","30.42","157","1.2","4","0.00","0.00"
"20:04:56","77.8","55.2","45.8","30.42","145","1.5","4","0.00","0.00"
"20:09:57","77.5","55.1","46","30.42","172","1.3","4","0.00","0.00"
"20:14:56","77.1","55.1","46.6","30.42","184","0.5","2.3","0.00","0.00"
"20:19:58","76.7","55.3","47.7","30.42","182","1","3.5","0.00","0.00"
"20:24:59","76.1","55.4","48.6","30.42","182","0.5","2","0.00","0.00"
"20:29:57","75.7","55.7","49.9","30.42","182","1","3","0.00","0.00"
"20:34:56","75.3","55.5","50.3","30.42","182","0.9","2.3","0.00","0.00"
"20:39:59","74.8","55.8","51.7","30.42","182","0.7","2","0.00","0.00"
"20:44:57","74.2","55.8","52.7","30.42","182","0.6","2","0.00","0.00"
"20:49:59","73.7","55.4","52.8","30.42","182","0.8","2.3","0.00","0.00"
"20:54:57","73.3","55.6","53.8","30.42","182","0.5","2.3","0.00","0.00"
"20:59:58","72.9","55.5","54.3","30.42","182","0.3","2","0.00","0.00"
"21:04:58","72.5","55.4","55","30.42","182","0.4","2.3","0.00","0.00"
"21:09:59","72.1","55.3","55.5","30.42","182","0.3","2","0.00","0.00"
"21:14:59","71.8","55.3","56","30.42","182","0.6","2.3","0.00","0.00"
"21:19:57","71.6","54.9","55.7","30.42","179","0.7","3","0.00","0.00"
"21:24:57","71.5","54.7","55.3","30.42","146","1.6","3.5","0.00","0.00"
"21:29:58","71.6","54.5","54.7","30.42","160","2.4","5","0.00","0.00"
"21:34:58","71.7","54.3","54.1","30.42","159","1.9","4","0.00","0.00"
"21:39:58","71.8","54.2","53.8","30.42","137","1.2","4","0.00","0.00"
"21:44:58","71.7","54","53.5","30.42","147","1.2","3.5","0.00","0.00"
"21:49:59","71.6","54.1","54","30.42","148","0.5","2.3","0.00","0.00"
"21:54:59","71.3","54.4","55.3","30.42","148","0.2","1.2","0.00","0.00"
"21:59:59","70.7","54.5","56.5","30.42","148","0.4","2.3","0.00","0.00"
"22:04:59","70.1","54.8","58.3","30.42","148","0.2","1.2","0.00","0.00"
"22:09:56","69.4","55.6","61.5","30.42","148","0.1","1.2","0.00","0.00"
"22:14:56","68.7","55.6","63.1","30.42","148","0","0","0.00","0.00"
"22:19:59","68","55.4","64","30.42","148","0","0","0.00","0.00"
"22:24:57","67.4","55.4","65.4","30.42","148","0","1.2","0.00","0.00"
"22:29:58","66.8","55.2","66.2","30.42","148","0.4","2","0.00","0.00"
"22:34:56","66.5","55","66.6","30.42","148","0","0","0.00","0.00"
"22:39:58","66.1","55.1","67.7","30.42","148","0","0","0.00","0.00"
"22:44:56","65.6","55.2","69.1","30.42","148","0","0","0.00","0.00"
"22:49:58","65.2","55.2","70","30.42","148","0","0","0.00","0.00"
"22:54:56","64.8","54.9","70.3","30.42","148","0.3","1.2","0.00","0.00"
"22:59:56","64.4","54.4","70.1","30.42","148","0.2","3.5","0.00","0.00"
"23:04:56","64.1","54.1","70","30.42","148","0.3","2.3","0.00","0.00"
"23:09:57","64.2","54.2","70","30.42","148","0.4","1.2","0.00","0.00"
"23:14:56","64.6","54.3","69.4","30.42","148","0.6","3","0.00","0.00"
"23:19:57","64.8","54.3","68.8","30.42","151","1","3.5","0.00","0.00"
"23:24:59","65.1","54.7","69","30.42","151","0.2","2.3","0.00","0.00"
"23:29:56","65.1","55.3","70.6","30.42","150","0.1","1.2","0.00","0.00"
"23:34:57","64.9","54.9","70","30.42","150","0","1","0.00","0.00"
"23:39:57","64.6","54.7","70.3","30.42","150","0","1","0.00","0.00"
"23:44:59","64.4","55","71.5","30.42","150","0","0","0.00","0.00"
"23:49:56","64.2","54.9","71.8","30.41","150","0","0","0.00","0.00"
"23:54:57","64","54.9","72.2","30.41","150","0","0","0.00","0.00"
"23:59:58","63.7","55.1","73.5","30.41","150","0","0","0.00","0.00"
